TITAN 401 CENTAUR R/B, 23713

Orbit data source: Space-Track

TITAN 401 CENTAUR R/B, 23713 is space debris in GEO originally from a launch on Mon, 06 Nov 1995 UTC launched from the Air Force Eastern Test Range (AFETR). Debris objects in space refer to the collection of defunct objects orbiting the Earth. Examples of debris include non-operational satellites, rocket bodies, and fragments generated from explosions, collisions, or faulty payload assembly.

Loading next visibility...
Identifier
23713, 1995-060B
Orbit
GEO
Country
Flag of USUS
Related business
Manufacturer
LMA/San Diego
Mission
Spacecraft
Bus & Motor
CENTAUR T, Unknown motor
Mass
~2,775 kg wet, ~2,775 kg dry
Launch date (UTC)
1995-11-06 (30 years ago)
Launch vehicle
Unknown
Launch site
Air Force Eastern Test Range (AFETR)
Object type
Payload
Rocket body
Debris
Shape & HBR
Cyl, 4.5 m
Radar Cross Section
37.970 m²

Expand to show TLE details & history
Last TLE update: 2 days ago

TLE from 2 days ago
0 TITAN 401 CENTAUR R/B
1 23713U 95060B   25311.99262263 -.00000270  00000-0  00000-0 0  9997
2 23713  14.3651   0.5447 0037527 219.5035 140.2001  1.00588510 23200
Epoch: 2025-11-07T23:49Z
TLE epoch observation values (Epoch: 2025-11-07T23:49:22.595Z)
Latitude
-0.00001°
Longitude
-44.26755°
Altitude
35,819.591 km
Speed
3.069 km/s
True Right ascension
00h 02m 01s
True Declination
0° 00' 00"
Sunlit
Object was in daylight at epoch
Visualization orbit readout
Latitude
Unknown
Longitude
Unknown
Altitude
Unknown
Speed
Unknown
Apparent Right ascension
Unknown
Apparent Declination
Unknown
Sunlit
N/A
Visualization observer readout
Local Sidereal Time
03:13:32
Azimuth
Unknown
Elevation
Unknown
Doppler factor
Unknown
Orbital elements
Apogee altitude
35,856.917 km
Perigee altitude
35,541.111 km
Semi-major axis
42,077.151 km
Eccentricity
0.00375
Inclination
14.3651°
RAAN
0.5447°
Arg. of periapsis
219.5035°
True anomaly
140.47437°
Mean anomaly
140.2001°
Eccentric anomaly
140.33734°
Mean motion
0.25146 °/min
Orbital period
1,431.62 mins
BSTAR
0
Loading maneuver chart data...
Computing Atmospheric mass density...
Loading historical data...
Loading historical data...
Loading historical data...
Loading historical data...
Loading historical data...
Loading historical data...
Loading historical data...
Other satellites on launch #60 in the year 1995 (1995-11-06 UTC)

Documentation

Showing up to 5 results
|